Showing default

GRUS-1C, 47933

Orbit data source: Space-Track

GRUS-1C, 47933 is a payload satellite owned by AXELSPACE (JP) in SSO that was launched on Mon, 22 Mar 2021 UTC via a SOYUZ-2-1A launch vehicle from the Tyuratam Missile And Space Complex (TTMTR). Payload-class satellites include a variety of spacecraft equipped with specific instruments for various scientific and technological missions. These include communications satellites like Starlink; space stations such as the ISS; scientific satellites like the Hubble; Earth observation satellites from companies like Planet Labs, Umbra, and HawkEye 360; GPS; miniature CubeSats for education and research; and military/defense satellites.

Loading next visibility...
Identifier
47933, 2021-022B
Orbit
SSO
Country
Flag of JPJP / JPN
Related business
Manufacturer
AXELSPACE
Mission
Operational Commercial Imaging
Bus & Motor
GRUS, Unknown motor
Mass
80 kg wet, 80 kg dry
Launch date (UTC)
2021-03-22 (5 years ago)
Launch vehicle
SOYUZ-2-1A
Launch site
Tyuratam Missile And Space Complex (TTMTR)
Object type
Payload
Rocket body
Debris
Shape & HBR
Box, 0.3 m
Radar Cross Section
0.375 m², Medium (>0.1 m² and < 1m²)

Expand to show TLE details & history
Last TLE update: 18 hours ago

TLE from 18 hours ago
0 GRUS-1C
1 47933U 21022B   25348.92229426  .00001719  00000-0  14825-3 0  9992
2 47933  97.5617 232.8675 0012689 216.9025 143.1326 14.98510035258301
Epoch: 2025-12-14T22:08Z
TLE epoch observation values (Epoch: 2025-12-14T22:08:06.224Z)
Latitude
Longitude
177.0133°
Altitude
581.616 km
Speed
7.566 km/s
True Right ascension
15h 31m 28s
True Declination
0° 00' 00"
Sunlit
Object was in daylight at epoch
Visualization orbit readout
Latitude
Unknown
Longitude
Unknown
Altitude
Unknown
Speed
Unknown
Apparent Right ascension
Unknown
Apparent Declination
Unknown
Sunlit
N/A
Visualization observer readout
Local Sidereal Time
15:09:26
Azimuth
Unknown
Elevation
Unknown
Doppler factor
Unknown
Orbital elements
Apogee altitude
577.315 km
Perigee altitude
559.686 km
Semi-major axis
6,946.637 km
Eccentricity
0.00127
Inclination
97.5617°
RAAN
232.8675°
Arg. of periapsis
216.9025°
True anomaly
143.21973°
Mean anomaly
143.1326°
Eccentric anomaly
143.17617°
Mean motion
3.7487 °/min
Orbital period
96.03 mins
BSTAR
0.00014825
Loading maneuver chart data...
Computing Atmospheric mass density...
Loading historical data...
Loading historical data...
Loading historical data...
Loading historical data...
Loading historical data...
Loading historical data...
Loading historical data...

Documentation

Showing up to 5 results
|